Regional Weather Roundup
Issued by NWS Jackson, KY

Home | Current Version | Previous Version | Graphics & Text | Print | Product List | Glossary On
Versions: 1 2 3 4 5 6 7 8 9 10 11 12 13 14 15 16 17 18 19 20 21 22 23 24 25 26 27 28 29 30 31 32 33 34 35 36 37 38 39 40 41 42 43 44 45 46 47 48 49 50
674
ASUS43 KJKL 030110
RWRJKL

EAST KENTUCKY HOURLY WEATHER ROUNDUP
NATIONAL WEATHER SERVICE JACKSON KY
900 PM EDT MON MAY 02 2016

NOTE: "FAIR" INDICATES FEW OR NO CLOUDS BELOW 12,000 FEET WITH
NO SIGNIFICANT WEATHER AND/OR OBSTRUCTIONS TO VISIBILITY.

* THESE REPORTS ARE NOT UNDER NWS QUALITY CONTROL AND MAY NOT
  REPORT WEATHER SUCH AS PRECIPITATION AND FOG.

KYZ079-080-083-085-087-088-110-112-115-119-120-030200
...EASTERN KENTUCKY...

CITY           SKY/WX    TMP DP  RH WIND       PRES   REMARKS
JACKSON        CLOUDY    58  57  97 CALM      29.93S
LONDON         CLOUDY    60  58  92 W3        29.94R
SOMERSET*      CLOUDY    59  59 100 CALM      29.94F
MONTICELLO*    CLOUDY    61  60  97 W12       29.95F
WILLIAMSBURG*  CLOUDY    57  57 100 CALM      29.94S
MIDDLESBORO*   CLOUDY    60  59  99 CALM      29.96R
HARLAN APT*    CLOUDY    59  57  94 CALM      29.95S
HAZARD APT*    CLOUDY    59  59 100 CALM      29.93F FOG
PIKE CO APT*   LGT RAIN  58  58 100 S3        29.95R
BIG SANDY APT* CLOUDY    59  59  99 CALM      29.93R
MOREHEAD APT*  CLOUDY    61  59  94 CALM      29.94R FOG
$$

KYZ035-036-041-042-044-050-067-078-099-030200
...CENTRAL KENTUCKY...

CITY           SKY/WX    TMP DP  RH WIND       PRES   REMARKS
MT STERLING*   CLOUDY    59  59 100 CALM      29.93S
FLEMING/MASON* CLOUDY    60  58  93 W5        29.93S
DANVILLE*      CLOUDY    57  55  94 SW3       29.94S
RICHMOND*      CLOUDY    59  57  94 CALM      29.92S
LEXINGTON      CLOUDY    61  52  72 NW6       29.92F
FRANKFORT      CLOUDY    61  52  72 NW7       29.91F
LOUISVILLE     CLOUDY    62  50  64 NW13      29.94R
LEBANON*       CLOUDY    61  57  88 CALM      29.94R
BOWLING GREEN  CLOUDY    62  56  80 SW3       29.95R
$$

KYZ091>093-OHZ055-061-077-WVZ005-015-034-035-042-030200
...SOUTHERN OHIO/WEST VIRGINIA...

CITY           SKY/WX    TMP DP  RH WIND       PRES   REMARKS
COVINGTON      CLOUDY    59  51  75 NW9       29.92F
COLUMBUS       CLOUDY    53  48  83 N10       29.93S
DAYTON         CLOUDY    53  49  86 NE8       29.95F
WILMINGTON     CLOUDY    54  51  90 NE14      29.93S
HUNTINGTON     LGT RAIN  61  59  93 S3        29.90F
CHARLESTON     CLOUDY    62  60  93 CALM      29.89F
PINEVILLE*       N/A     60  57  89 MISG      29.98R
BECKLEY        MOCLDY    57  55  93 SE5       29.94F
$$

VAZ002-007-008-TNZ017-027-036-066-071-030200
...SOUTHWEST VIRGINIA/EAST TENNESSEE...

CITY           SKY/WX    TMP DP  RH WIND       PRES   REMARKS
WISE*          LGT RAIN  55  55 100 SW3       30.00R
BRISTOL        LGT RAIN  60  56  86 SW3       29.97S
MORRISTOWN*    CLOUDY    61  61 100 SE3       29.95S
SEVIERVILLE*   CLOUDY    61  61 100 CALM      29.95R
KNOXVILLE      CLOUDY    62  59  90 SE5       29.94F
OAK RIDGE      CLOUDY    62  59  90 CALM      29.96R
CROSSVILLE     CLOUDY    62  59  90 CALM      29.96R
NASHVILLE      LGT RAIN  60  56  86 NW8       29.96R
$$

...KEY TO REMARKS...
VSB - VISIBILITY IN MILES
WCI - WIND CHILL INDEX
HX  - HEAT INDEX

$$




USA.gov is the U.S. government's official web portal to all federal, state and local government web resources and services.